Weather Roundup
Issued by NWS

Home | Current Version | Previous Version | Graphics & Text | Print | Product List | Glossary Off
Versions: 1 2 3 4 5 6 7 8 9 10 11 12 13 14 15 16 17 18 19 20 21 22 23 24 25 26 27 28 29 30 31 32 33 34 35 36 37 38 39 40 41 42 43 44 45 46 47 48 49 50

000
NZUS93 KARX 151310
HRRWXR

CURRENT HOURLY OBSERVATIONS ACROSS
MUCH OF THE UPPER MISSISSIPPI VALLEY
NATIONAL WEATHER SERVICE LA CROSSE WI
800 AM CDT TUE APR 15 2014


...SOUTHEAST MINNESOTA...


CITY           SKY/WX    TMP DP  RH WIND       PRES   REMARKS
ROCHESTER      SUNNY     23  13  65 NW9       30.11R WCI  13
ROCHESTER/MAYO FAIR      22  11  61 W10       30.12S WCI  12
WINONA         SUNNY     28  16  59 N8        30.14R WCI  20
AUSTIN         SUNNY     21  12  68 NW8       30.13R WCI  12
ALBERT LEA     SUNNY     21  12  68 NW6       30.15R WCI  14
DODGE CENTER   SUNNY     25  12  58 NW9       30.12R WCI  15
PRESTON        SUNNY     24  15  69 NW9       30.11R WCI  14
OWATONNA       SUNNY     21  12  68 NW7       30.14R WCI  13
FARIBAULT      SUNNY     25   9  50 NW9       30.15R WCI  15
$$

...ELSEWHERE IN MINNESOTA...


CITY           SKY/WX    TMP DP  RH WIND       PRES   REMARKS
MINNEAPOLIS    SUNNY     20  10  65 NW10      30.16R WCI   9
INTNL FALLS    SUNNY      9   0  67 NW6       30.12R WCI  -1
DULUTH         SUNNY     14   2  58 NW7       30.07R WCI   4
RED WING       SUNNY     25   9  50 N7        30.14R WCI  17
REDWOOD FALLS  SUNNY     18   9  68 NW7       30.19R WCI   9
MANKATO        SUNNY     19  10  68 W10       30.18R WCI   8
WORTHINGTON    SUNNY     19  10  68 CALM      30.17S
FAIRMONT       SUNNY     21   9  58 NW8       30.20R WCI  12
$$

...SOUTHWEST WISCONSIN...


CITY           SKY/WX    TMP DP  RH WIND       PRES   REMARKS
LA CROSSE      CLOUDY    28  15  58 NW12      30.12R WCI  18
PRAIRIE DU CHI MOSUNNY   28  17  64 NW6       30.13R WCI  21
BOSCOBEL       SUNNY     29  17  61 N5        30.13R WCI  24
LONE ROCK      SUNNY     25  18  74 W6        30.12R WCI  18
PLATTEVILLE    SUNNY     27  17  65 NW3       30.11R
FORT MC COY    SUNNY     18  15  89 CALM      30.12R
CAMP DOUGLAS   MOSUNNY   18  18 100 W6        30.09R WCI   9
VIROQUA        FAIR      23  14  69 N6        30.08R WCI  16
WIS DELLS      SUNNY     18  16  93 CALM      30.09R
$$

...ELSEWHERE IN WISCONSIN...


CITY           SKY/WX    TMP DP  RH WIND       PRES   REMARKS
MILWAUKEE      MOSUNNY   26  15  63 N10       30.09R WCI  16
MADISON        MOSUNNY   24  18  77 W5        30.10R WCI  18
GREEN BAY      SUNNY     22  14  71 VRB6      30.08R WCI  14
EAU CLAIRE     SUNNY     24  15  68 N7        30.11R WCI  16
BLACK RVR FLS  FAIR      24  16  72 NW7       30.11R WCI  15
MEDFORD        SUNNY     18  12  77 NW7       30.04S WCI   9
WAUSAU         SUNNY     18  11  74 NW5       30.04R WCI  11
WIS RAPIDS     SUNNY     17  16  95 CALM      30.08R
MARSHFIELD     SUNNY     22  14  71 NW9       30.05R WCI  12
RICE LAKE      NOT AVBL
$$

...NORTHEAST IOWA...


CITY           SKY/WX    TMP DP  RH WIND       PRES   REMARKS
WATERLOO       SUNNY     25  14  63 NW13      30.16R WCI  14
DUBUQUE        MOSUNNY   27  19  72 NW9       30.11R WCI  18
DECORAH        SUNNY     25  18  74 NW8       30.11R WCI  16
MASON CITY     SUNNY     21  12  68 NW13      30.17R WCI   9
CHARLES CITY   SUNNY     23  14  68 NW10      30.15R WCI  12
OELWEIN        SUNNY    N/A N/A N/A NW13      30.14R
$$

...ELSEWHERE IN IOWA...


CITY           SKY/WX    TMP DP  RH WIND       PRES   REMARKS
DES MOINES     MOSUNNY   29  20  69 N8        30.21R WCI  21
IOWA CITY      SUNNY     28  17  63 NW12      30.18R WCI  18
FORT DODGE     SUNNY     23  14  68 N7        30.20R WCI  15
MARSHALLTOWN   SUNNY     25  16  68 NW12      30.18R WCI  14
CEDAR RAPIDS   SUNNY     27  17  66 NW13      30.15R WCI  16
$$

...NORTHERN ILLINOIS...


CITY           SKY/WX    TMP DP  RH WIND       PRES   REMARKS
CHICAGO-OHARE  MOSUNNY   28  16  60 N14       30.08R WCI  17
DUPAGE         SUNNY     27  16  63 N12       30.09R WCI  17
CHICAGO-MIDWAY MOSUNNY   28  21  75 NW13      30.09R WCI  17
MOLINE         SUNNY     30  18  60 NW15      30.15R WCI  19
ROCKFORD       SUNNY     27  17  66 N9        30.13R WCI  18
STERLING       SUNNY     30  21  69 N3        30.12R
PEORIA         SUNNY     30  22  72 NW7       30.14R WCI  23
$$

NOTE: "FAIR" INDICATES FEW OR NO CLOUDS BELOW 12,000 FEET WITH NO
SIGNIFICANT WEATHER AND/OR OBSTRUCTIONS TO VISIBILITY. WIND
SPEEDS ARE IN MILES-PER-HOUR.



USA.gov is the U.S. government's official web portal to all federal, state and local government web resources and services.